Weather History for KSTC - March, 2012

Change the Weather History Date:

Friday, March 2, 2012

  Actual Average Record
Temperature  
Mean Temperature 28 °F 23 °F  
Max Temperature 33 °F 32 °F 53 °F (1934)
Min Temperature 22 °F 14 °F -24 °F (1913)
Degree Days  
Heating Degree Days 37 42  
Month to date heating degree days 70 84  
Since 1 July heating degree days 5441 6530  
Cooling Degree Days 0 0  
Month to date cooling degree days 0 0  
Year to date cooling degree days 0 0  
Moisture  
Dew Point 23 °F    
Average Humidity 80    
Maximum Humidity 100    
Minimum Humidity 59    
Precipitation  
Precipitation T in 0.03 in 0.47 in (1906)
Month to date precipitation 0.04 0.07  
Year to date precipitation 1.85 1.31  
Snow  
Snow T in 0.40 in 6.00 in (1965)
Month to date snowfall 0.2 0.7  
Since 1 July snowfall 26.9 34.9  
Snow Depth 7.00 in    
Sea Level Pressure  
Sea Level Pressure 29.68 in    
Wind  
Wind Speed 9 mph (SW)    
Max Wind Speed 22 mph    
Max Gust Speed 25 mph    
Visibility 5 miles    
Events Fog , Snow    
T = Trace of Precipitation, MM = Missing Value Source: NWS Daily Summary

Daily Weather History Graph

Daily Weather History Graph

Search for Another Location

Airport or City:

Trip Planner

Search our weather history database for the weather conditions in past years. The results will help you decide how hot, cold, wet, or windy it might be!

Date:

Astronomy

Mar. 02, 2012 Rise Set
Actual Time 6:51 AM CST 6:05 PM CST
Civil Twilight 6:22 AM CST 6:35 PM CST
Nautical Twilight 5:47 AM CST 7:09 PM CST
Astronomical Twilight 5:13 AM CST 7:43 PM CST
Moon 12:04 PM CST (3/2) 2:56 AM CST (3/2)
Length of Visible Light 12h 12m
Length of Day
11h 13m
Waxing Gibbous, 66% of the Moon is Illuminated
Mar 2
Waxing Gibbous
Mar 8
Full
Mar 14
Last Quarter
Mar 22
New
Mar 30
First Quarter

Hourly Weather History & Observations

Time (CST) Temp. Windchill Dew Point Humidity Pressure Visibility Wind Dir Wind Speed Gust Speed Precip Events Conditions
12:53 AM 32.0 °F 27.5 °F 30.0 °F 92% 29.77 in 5.0 mi South 4.6 mph - N/A   Overcast
1:53 AM 28.0 °F 22.8 °F 27.0 °F 96% 29.76 in 5.0 mi South 4.6 mph - N/A   Scattered Clouds
2:27 AM 28.4 °F 23.3 °F 28.4 °F 100% 29.70 in 4.0 mi SW 4.6 mph - N/A   Mostly Cloudy
2:49 AM 26.6 °F 22.6 °F 26.6 °F 100% 29.70 in 3.0 mi WSW 3.5 mph - N/A   Scattered Clouds
2:53 AM 27.0 °F 23.0 °F 26.1 °F 96% 29.76 in 2.5 mi WSW 3.5 mph - N/A   Partly Cloudy
3:02 AM 26.6 °F - 24.8 °F 93% 29.69 in 1.2 mi Calm Calm - N/A   Partly Cloudy
3:07 AM 26.6 °F - 24.8 °F 93% 29.69 in 0.8 mi Calm Calm - N/A   Mist
3:25 AM 26.6 °F 22.6 °F 24.8 °F 93% 29.69 in 0.2 mi South 3.5 mph - N/A Fog Light Freezing Fog
3:53 AM 21.9 °F 17.2 °F 19.9 °F 92% 29.75 in 0.2 mi South 3.5 mph - N/A Fog Light Freezing Fog
4:17 AM 24.8 °F 19.1 °F 23.0 °F 93% 29.68 in 0.5 mi SSW 4.6 mph - N/A Fog Light Freezing Fog
4:46 AM 26.6 °F 21.2 °F 26.6 °F 100% 29.68 in 0.2 mi WSW 4.6 mph - N/A Fog Light Freezing Fog
4:53 AM 27.0 °F 21.6 °F 26.1 °F 96% 29.74 in 0.2 mi WSW 4.6 mph - N/A Fog Light Freezing Fog
5:53 AM 27.0 °F - 25.0 °F 92% 29.73 in 0.2 mi Calm Calm - N/A Fog Light Freezing Fog
6:53 AM 26.1 °F 21.9 °F 24.1 °F 92% 29.73 in 0.2 mi South 3.5 mph - N/A Fog Light Freezing Fog
7:12 AM 24.8 °F 19.1 °F 23.0 °F 93% 29.67 in 0.2 mi SSW 4.6 mph - N/A Fog Light Freezing Fog
7:53 AM 24.1 °F 19.7 °F 23.0 °F 96% 29.74 in 0.2 mi SSE 3.5 mph - N/A Fog Light Freezing Fog
8:13 AM 23.0 °F 17.0 °F 21.2 °F 93% 29.66 in 1.2 mi SSW 4.6 mph - N/A   Mostly Cloudy
8:15 AM 23.0 °F 17.0 °F 21.2 °F 93% 29.66 in 3.0 mi SSW 4.6 mph - N/A   Mostly Cloudy
8:23 AM 23.0 °F 17.0 °F 21.2 °F 93% 29.66 in 3.0 mi SSW 4.6 mph - N/A   Scattered Clouds
8:53 AM 24.1 °F 19.7 °F 21.9 °F 91% 29.72 in 3.0 mi South 3.5 mph - N/A   Clear
9:53 AM 25.0 °F 19.3 °F 23.0 °F 92% 29.71 in 6.0 mi South 4.6 mph - N/A   Clear
10:53 AM 30.0 °F 21.7 °F 21.9 °F 72% 29.69 in 10.0 mi West 9.2 mph - N/A   Clear
11:53 AM 33.1 °F 25.5 °F 21.0 °F 61% 29.68 in 10.0 mi West 9.2 mph - N/A   Clear
12:53 PM 32.0 °F 23.0 °F 19.9 °F 61% 29.67 in 10.0 mi WSW 11.5 mph - N/A   Clear
1:53 PM 30.0 °F 19.5 °F 19.0 °F 64% 29.65 in 10.0 mi West 13.8 mph - N/A   Clear
2:35 PM 30.2 °F 19.3 °F 19.4 °F 64% 29.58 in 10.0 mi WSW 15.0 mph - N/A   Mostly Cloudy
2:53 PM 30.0 °F 19.5 °F 19.9 °F 66% 29.65 in 10.0 mi West 13.8 mph - N/A   Overcast
3:53 PM 28.9 °F 18.6 °F 19.9 °F 69% 29.66 in 10.0 mi West 12.7 mph 20.7 mph N/A   Overcast
4:53 PM 28.9 °F 19.2 °F 21.0 °F 72% 29.66 in 8.0 mi WSW 11.5 mph 19.6 mph N/A   Overcast
5:53 PM 28.9 °F 19.2 °F 21.9 °F 75% 29.65 in 6.0 mi WSW 11.5 mph - N/A   Haze
6:53 PM 28.9 °F 21.1 °F 23.0 °F 78% 29.64 in 10.0 mi WSW 8.1 mph - N/A   Overcast
7:35 PM 28.4 °F 17.5 °F 23.0 °F 80% 29.57 in 10.0 mi West 13.8 mph - N/A   Overcast
7:53 PM 28.9 °F 17.7 °F 23.0 °F 78% 29.64 in 10.0 mi West 15.0 mph - N/A   Overcast
8:53 PM 28.0 °F 15.7 °F 21.9 °F 78% 29.64 in 6.0 mi West 17.3 mph 21.9 mph 0.00 in Snow Light Snow
9:53 PM 28.0 °F 16.5 °F 21.0 °F 75% 29.64 in 10.0 mi WNW 15.0 mph - 0.00 in   Overcast
10:53 PM 27.0 °F 16.7 °F 21.0 °F 78% 29.64 in 10.0 mi West 11.5 mph - N/A   Overcast
11:35 PM 24.8 °F 12.4 °F 17.6 °F 74% 29.58 in 3.0 mi WNW 15.0 mph - 0.00 in Snow Light Snow
11:45 PM 24.8 °F 12.4 °F 19.4 °F 80% 29.58 in 2.0 mi WNW 15.0 mph - 0.00 in Snow Light Snow
11:53 PM 24.1 °F 12.0 °F 19.0 °F 81% 29.64 in 1.8 mi WNW 13.8 mph - 0.00 in Snow Light Snow